www.pogodaiklimat.ru

Погода и климат >> Архив погоды >> Австрия >> Мондзе


ПОГОДА в Мондзе

  • Прогноз погоды в Мондзе
  • Монитор погоды в Мондзе

АРХИВ ПОГОДЫ в Мондзе

Время (UTC), дата Ветер
(напр.,м/с)
 
Видим.   Явления Облачность Т
(С)
Тd
(С)
f
(%)
Тe
(С)
Тes
(С)
Комфортность P
(гПа)
Po
(гПа)
Тmin
(С)
Tmax
(С)
R
(мм)
R24
(мм)
S
(см)
07 9.07 З 2 н/о н/о +16.1 +11.0 72 +16 +16 1016.7 961.0
08 9.07 З 2 н/о н/о +16.3 +10.1 67 +16 +16 1016.7 961.0
09 9.07 З 1 н/о н/о +17.3 +8.9 58 +18 +18 1016.7 961.2
10 9.07 ЮЗ 2 н/о н/о +18.6 +8.8 53 +20 +20 1016.4 961.1
11 9.07 С 2 н/о н/о +18.3 +9.5 56 +19 +19 1016.5 961.2
12 9.07 С 3 н/о н/о +17.3 +9.1 59 +17 +17 1016.6 961.1
13 9.07 С 2 н/о н/о +18.2 +7.8 51 +19 +19 1016.5 961.1
14 9.07 З 1 н/о н/о +19.5 +8.8 50 +22 +22 комфорт 1016.0 960.9
15 9.07 СЗ 1 н/о н/о +19.3 +9.0 51 +21 +21 комфорт 1015.6 960.5
16 9.07 З 1 н/о н/о +19.3 +9.2 52 +21 +21 комфорт 1015.5 960.4
17 9.07 З 3 н/о н/о +18.9 +7.7 48 +20 +20 1015.3 960.1
18 9.07 З 1 н/о н/о +17.9 +9.1 56 +19 +19 1015.5 960.2 +15.2 +20.6
19 9.07 СЗ 1 н/о н/о +16.1 +9.8 66 +17 +17 1016.2 960.5
20 9.07 штиль 0 н/о н/о +15.2 +9.7 70 +15 +15 1017.0 961.1
21 9.07 СЗ 1 н/о н/о +14.6 +9.6 72 +15 +15 1017.3 961.3
22 9.07 штиль 0 н/о н/о +14.1 +9.3 73 +14 +14 1017.6 961.4
23 9.07 СЗ 1 н/о н/о +13.7 +10.1 79 +14 +14 1017.6 961.4
00 10.07 СЗ 1 н/о н/о +13.4 +9.6 78 +14 +14 1017.7 961.4
01 10.07 СЗ 1 н/о н/о +12.6 +9.2 80 +13 +13 1017.9 961.4
02 10.07 СЗ 1 н/о н/о +13.0 +8.1 72 +13 +13 1018.2 961.8
03 10.07 З 1 н/о н/о +12.6 +8.0 74 +13 +13 1018.5 962.0
04 10.07 СЗ 1 н/о н/о +11.2 +7.9 80 +11 +11 1019.0 962.2
05 10.07 СЗ 1 н/о н/о +11.7 +8.1 79 +12 +12 1019.0 962.3
06 10.07 З 1 н/о н/о +13.9 +7.6 66 +14 +14 1018.5 962.2 +11.1 +18.3
07 10.07 З 2 н/о н/о +16.1 +7.5 57 +16 +16 1018.1 962.3
08 10.07 С 2 н/о н/о +16.4 +6.8 53 +17 +17 1018.3 962.5
09 10.07 С 2 н/о н/о +16.9 +7.4 53 +17 +17 1018.3 962.6
10 10.07 З 3 н/о н/о +16.9 +5.4 47 +17 +17 1018.3 962.6
11 10.07 СЗ 2 н/о н/о +17.3 +7.1 51 +18 +18 1018.2 962.6
12 10.07 СЗ 2 н/о н/о +19.1 +6.0 42 +20 +20 1017.8 962.5
13 10.07 З 2 н/о н/о +20.4 +5.4 37 +22 +22 комфорт 1017.0 962.0
14 10.07 З 2 н/о н/о +21.2 +4.9 34 +22 +22 комфорт 1016.7 961.8
15 10.07 С 2 н/о н/о +21.3 +5.5 36 +22 +22 комфорт 1016.2 961.4
16 10.07 С 2 н/о н/о +21.2 +4.9 34 +22 +22 комфорт 1016.1 961.3
17 10.07 СЗ 1 н/о н/о +20.4 +5.0 36 +22 +22 комфорт 1016.2 961.2
18 10.07 З 1 н/о н/о +18.7 +5.8 43 +20 +20 1016.5 961.2 +13.5 +21.6
19 10.07 С 1 н/о н/о +16.1 +7.3 56 +17 +17 1017.0 961.2
20 10.07 СЗ 1 н/о н/о +14.0 +7.7 66 +14 +14 1018.0 961.8
21 10.07 С 1 н/о н/о +12.6 +7.6 72 +13 +13 1018.4 961.9
22 10.07 СЗ 1 н/о н/о +11.7 +7.5 75 +12 +12 1018.7 962.0
23 10.07 СЗ 1 н/о н/о +10.8 +7.3 79 +11 +11 1018.8 961.9
00 11.07 штиль 0 н/о н/о +10.1 +7.1 82 +9 +9 1018.6 961.6
01 11.07 СЗ 1 н/о н/о +9.8 +6.7 81 +9 +9 1018.4 961.3
02 11.07 З 1 н/о н/о +9.3 +6.5 83 +9 +9 1017.9 960.8
03 11.07 СЗ 1 н/о н/о +9.1 +6.6 84 +8 +8 1017.7 960.5
04 11.07 СЗ 1 н/о н/о +9.3 +6.8 84 +9 +9 1017.5 960.4
05 11.07 З 1 н/о н/о +11.1 +8.1 82 +11 +11 1017.2 960.5
06 11.07 СЗ 1 н/о н/о +12.7 +8.5 76 +13 +13 1016.9 960.5 +9.0 +19.1
07 11.07 З 1 н/о н/о +14.1 +9.5 74 +14 +14 1016.5 960.4
08 11.07 ЮВ 1 н/о н/о +15.8 +9.3 65 +17 +17 1015.7 960.0
09 11.07 ЮВ 1 н/о н/о +16.7 +10.3 66 +18 +18 1015.5 960.0
10 11.07 ЮВ 1 н/о н/о +17.7 +10.2 61 +19 +19 1015.2 959.9
11 11.07 ЮВ 1 н/о н/о +19.3 +9.4 53 +21 +21 комфорт 1014.5 959.5
12 11.07 Ю 1 н/о н/о +20.2 +7.9 45 +22 +22 комфорт 1013.7 958.9
13 11.07 З 1 н/о н/о +21.6 +7.7 41 +23 +23 комфорт 1013.2 958.6
14 11.07 З 2 н/о н/о +21.6 +8.4 43 +23 +23 комфорт 1013.0 958.5
15 11.07 З 2 н/о +21.2 +9.7 48 +23 +23 комфорт 1013.0 958.4
16 11.07 З 2 н/о н/о +20.4 +8.5 46 +22 +22 комфорт 1013.0 958.2
17 11.07 СЗ 2 н/о ливневой дождь н/о +17.9 +10.9 64 +18 +18 1014.1 958.9 0.0
18 11.07 З 2 н/о осадки {ливн. осадки} н/о +16.1 +12.0 77 +16 +16 1015.1 959.5 +12.5 +21.8 0.2
19 11.07 С 1 н/о осадки н/о +15.1 +12.9 87 +16 +16 1015.1 959.3 0.7
20 11.07 З 1 н/о в посл. час осадки н/о +14.7 +13.1 90 +15 +15 1015.6 959.7 0.1
21 11.07 штиль 0 н/о осадки н/о +14.4 +12.9 91 +14 +14 1015.9 960.0 1
22 11.07 С 1 н/о осадки н/о +14.4 +12.8 90 +15 +15 1016.2 960.2 0.5
23 11.07 штиль 0 н/о в посл. час осадки н/о +14.2 +12.8 91 +14 +14 1016.0 960.0 0.5
00 12.07 штиль 0 н/о в посл. час осадки {ливн. осадки} н/о +14.1 +12.7 91 +14 +14 1015.5 959.5 3
01 12.07 С 2 н/о осадки н/о +13.9 +12.5 91 +13 +13 1015.5 959.5 0.3
02 12.07 С 1 н/о в посл. час осадки н/о +14.2 +12.8 91 +14 +14 1014.8 958.9 0.1
03 12.07 штиль 0 н/о {осадки} н/о +14.3 +13.1 92 +14 +14 1014.6 958.7 0.4
04 12.07 Ю 1 н/о н/о +14.2 +12.8 91 +14 +14 1014.9 959.0 0.0
05 12.07 штиль 0 н/о н/о +14.5 +13.0 91 +14 +14 1015.0 959.1
06 12.07 Ю 1 н/о {осадки} н/о +15.5 +13.3 87 +16 +16 1014.7 959.0 +13.8 +16.4 3
07 12.07 Ю 1 н/о н/о +18.1 +12.8 71 +19 +19 1014.1 958.9
08 12.07 В 2 н/о н/о +19.5 +13.5 68 +22 +22 комфорт 1013.3 958.5
09 12.07 ЮВ 2 н/о н/о +19.9 +12.6 63 +22 +22 комфорт 1013.2 958.4
10 12.07 ЮЗ 1 н/о н/о +21.3 +12.2 56 +23 +23 комфорт 1012.5 958.0
11 12.07 З 3 н/о н/о +22.3 +11.1 49 +24 +24 комфорт 1012.0 957.7
12 12.07 З 4 н/о н/о +21.4 +11.7 54 +23 +23 комфорт 1011.9 957.4
13 12.07 СЗ 2 н/о в посл. час осадки н/о +22.2 +11.9 52 +25 +25 комфорт 1011.2 956.9 0.2
14 12.07 З 5
{13}
н/о н/о +21.2 +11.0 52 +23 +23 комфорт 1012.2 957.7
15 12.07 З 3
{13}
н/о {осадки} н/о +20.6 +11.8 57 +23 +23 комфорт 1012.5 957.9 0.2
16 12.07 З 3 н/о н/о +20.0 +11.2 57 +22 +22 комфорт 1012.3 957.6 0.0
17 12.07 З 2 н/о н/о +20.4 +11.2 55 +23 +23 комфорт 1011.4 956.8 0.0
18 12.07 З 1
{13}
н/о {осадки} н/о +19.5 +11.6 60 +22 +22 комфорт 1011.4 956.6 +15.4 +23.5 0.2
19 12.07 С 1 н/о н/о +17.7 +12.7 73 +19 +19 1011.6 956.5
20 12.07 штиль 0 н/о н/о +16.2 +12.7 80 +16 +16 1012.2 956.8
21 12.07 ЮВ 2 н/о н/о +17.1 +13.0 77 +17 +17 1011.8 956.6
22 12.07 В 2 н/о н/о +17.0 +13.4 79 +17 +17 1012.0 956.8
23 12.07 С 1 н/о н/о +16.2 +12.9 81 +17 +17 1012.4 957.0
00 13.07 СЗ 1 н/о осадки н/о +14.3 +11.6 84 +15 +15 1013.4 957.6 1
01 13.07 СЗ 1 н/о в посл. час осадки н/о +13.9 +12.0 88 +14 +14 1013.0 957.1 0.1
02 13.07 З 2 н/о н/о +14.4 +11.3 82 +14 +14 1012.9 957.1 0.0
03 13.07 З 2 н/о в посл. час осадки н/о +13.9 +11.8 87 +13 +13 1013.3 957.4 0.3
04 13.07 З 3 н/о н/о +14.7 +11.4 81 +14 +14 1013.5 957.7 0.0
05 13.07 З 2 н/о н/о +15.0 +11.1 77 +15 +15 1013.7 958.0 0.0
06 13.07 З 2 н/о в посл. час осадки {ливн. осадки} н/о +15.2 +11.8 80 +15 +15 1013.8 958.1 +13.7 +19.7 2
07 13.07 З 3 н/о осадки н/о +13.4 +11.2 87 +12 +12 1015.3 959.2 2
08 13.07 СЗ 2 н/о в посл. час осадки н/о +13.3 +11.6 89 +13 +13 1015.4 959.3 2
09 13.07 СЗ 2 н/о {ливн. осадки} н/о +14.4 +12.3 87 +14 +14 1015.4 959.5 3
10 13.07 СЗ 1 н/о осадки н/о +14.5 +12.9 90 +15 +15 1015.4 959.5 1
11 13.07 З 3 н/о н/о +13.8 +11.7 87 +13 +13 1016.3 960.2 10
12 13.07 З 2 н/о осадки {ливн. осадки} н/о +13.8 +12.4 91 +13 +13 1016.6 960.5 17
14 13.07 СЗ 2 н/о осадки н/о +14.7 +12.9 89 +14 +14 1016.2 960.3 2
15 13.07 З 1 н/о в посл. час осадки {ливн. осадки} н/о +14.9 +12.7 87 +15 +15 1016.4 960.5 4
17 13.07 СЗ 2 н/о осадки н/о +14.9 +12.6 86 +15 +15 1016.8 960.9 0.6
18 13.07 СЗ 1 н/о ливневой дождь н/о +14.3 +12.2 87 +15 +15 1016.9 960.9 +13.0 +16.8 23
19 13.07 З 1 н/о н/о +14.0 +11.9 87 +14 +14 1017.4 961.3 0.0
20 13.07 З 2 н/о н/о +13.9 +11.4 85 +13 +13 1017.7 961.5
21 13.07 штиль 0 н/о осадки н/о +13.7 +11.6 87 +13 +13 1017.6 961.4 0.4
22 13.07 С 1 н/о н/о +13.7 +11.5 87 +14 +14 1017.4 961.2 0.0
23 13.07 З 1 н/о н/о +13.8 +11.5 86 +14 +14 1017.5 961.3 0.0
00 14.07 СЗ 1 н/о в посл. час осадки н/о +13.8 +11.4 85 +14 +14 1017.2 961.0 0.4
01 14.07 З 1 н/о в посл. час осадки н/о +13.7 +11.6 87 +14 +14 1016.8 960.7 0.1
02 14.07 СЗ 1 н/о н/о +13.9 +11.8 87 +14 +14 1016.3 960.2 0.0
03 14.07 СЗ 1 н/о {осадки} н/о +14.0 +11.9 87 +14 +14 1016.3 960.2 0.1
04 14.07 З 3 н/о в посл. час осадки н/о +13.9 +11.9 88 +13 +13 1016.2 960.1 0.1
05 14.07 СЗ 1 н/о н/о +14.4 +11.6 83 +15 +15 1016.1 960.1
06 14.07 С 1 н/о {ливн. осадки} н/о +14.9 +11.9 82 +15 +15 1015.9 960.0 +13.6 +14.9 0.6
07 14.07 СЗ 1 н/о н/о +15.1 +12.2 83 +16 +16 1016.0 960.2 0.0
08 14.07 З 2 н/о в посл. час осадки н/о +14.7 +12.6 87 +14 +14 1016.3 960.4 0.3
09 14.07 З 1 н/о {осадки} н/о +16.2 +13.2 82 +17 +17 1015.9 960.3 0.3
10 14.07 З 3 н/о в посл. час осадки н/о +15.6 +13.4 87 +15 +15 1016.1 960.4 2
11 14.07 З 2 н/о в посл. час осадки н/о +17.4 +12.9 75 +18 +18 1015.6 960.2 0.0
12 14.07 ЮЗ 3 н/о {ливн. осадки} н/о +19.7 +12.4 63 +22 +22 комфорт 1014.6 959.7 2
13 14.07 ЮЗ 4 н/о н/о +21.1 +12.2 57 +23 +23 комфорт 1013.7 959.1
14 14.07 СЗ 3 н/о н/о +19.1 +11.4 61 +20 +20 1014.2 959.2
15 14.07 ЮЗ 3 н/о н/о +19.0 +12.9 68 +20 +20 1014.0 959.0
16 14.07 В 3 н/о н/о +19.6 +13.5 68 +21 +21 комфорт 1013.8 958.9
17 14.07 ЮВ 4 н/о осадки н/о +17.2 +13.2 77 +17 +17 1014.4 959.1 0.0
18 14.07 З 1 н/о в посл. час осадки н/о +15.6 +13.5 87 +16 +16 1015.2 959.5 +14.7 +21.5 3
19 14.07 З 1 н/о осадки н/о +14.9 +13.3 90 +15 +15 1015.5 959.7 0.6
20 14.07 С 1 н/о в посл. час осадки н/о +14.0 +12.9 93 +14 +14 1015.9 959.9 0.0
21 14.07 СЗ 1 н/о {осадки} н/о +13.2 +12.3 94 +13 +13 1015.9 959.7 0.6
22 14.07 СЗ 1 н/о н/о +12.6 +11.7 94 +13 +13 1016.1 959.8
23 14.07 С 1 н/о н/о +12.6 +11.7 94 +13 +13 1016.0 959.7
00 15.07 С 1 н/о {осадки} н/о +12.3 +11.4 94 +12 +12 1016.0 959.6 0.6
01 15.07 СЗ 1 н/о н/о +12.9 +12.0 94 +13 +13 1015.7 959.5
02 15.07 С 1 н/о н/о +12.8 +11.7 93 +13 +13 1015.2 959.0
03 15.07 СЗ 1 н/о н/о +11.9 +10.9 94 +12 +12 1015.4 959.0
04 15.07 СЗ 1 н/о н/о +11.7 +10.8 94 +11 +11 1015.6 959.1
05 15.07 СЗ 1 н/о н/о +13.3 +12.1 92 +13 +13 1015.2 959.1
06 15.07 ЮЗ 1 н/о н/о +14.1 +12.1 88 +14 +14 1015.5 959.5 +11.7 +15.8 0.6
07 15.07 С 1 н/о н/о +15.5 +12.3 81 +16 +16 1015.2 959.5
08 15.07 ЮВ 3 н/о н/о +18.2 +13.5 74 +19 +19 1014.7 959.5
09 15.07 Ю 1 н/о н/о +18.5 +12.2 67 +20 +20 1014.6 959.5
10 15.07 ЮВ 3 н/о н/о +19.5 +12.3 63 +21 +21 комфорт 1014.1 959.2
11 15.07 В 2 н/о н/о +20.6 +11.5 56 +23 +23 комфорт 1013.8 959.1
12 15.07 С 1 н/о н/о +21.9 +10.9 50 +24 +24 комфорт 1013.4 958.9
13 15.07 В 3 н/о н/о +22.4 +10.1 46 +24 +24 комфорт 1013.1 958.7
14 15.07 ЮЗ 1 н/о н/о +23.0 +9.9 43 +25 +25 комфорт 1012.9 958.6
15 15.07 С 3 н/о н/о +23.0 +8.2 39 +24 +24 комфорт 1012.8 958.5
16 15.07 В 3 н/о н/о +23.0 +10.5 45 +25 +25 комфорт 1012.4 958.2
17 15.07 С 2 н/о н/о +21.9 +9.8 46 +23 +23 комфорт 1012.9 958.4
18 15.07 З 2 н/о н/о +20.6 +10.2 51 +23 +23 комфорт 1013.5 958.8 +13.9 +23.5
19 15.07 СЗ 1 н/о н/о +18.4 +10.5 60 +20 +20 1014.1 959.0
20 15.07 СЗ 1 н/о н/о +16.7 +11.2 70 +18 +18 1015.0 959.5
21 15.07 СЗ 1 н/о н/о +15.9 +11.3 74 +17 +17 1015.5 959.8
22 15.07 СЗ 1 н/о н/о +14.2 +11.2 82 +15 +15 1016.0 960.0
00 16.07 СЗ 1 н/о н/о +12.5 +10.5 88 +12 +12 1016.7 960.3
01 16.07 СЗ 1 н/о н/о +12.0 +10.0 88 +12 +12 1016.8 960.3
02 16.07 СЗ 1 н/о н/о +11.6 +9.8 89 +11 +11 1016.9 960.3
03 16.07 штиль 0 н/о н/о +11.1 +9.6 90 +10 +10 1017.0 960.3
04 16.07 СЗ 1 н/о н/о +11.0 +9.5 90 +11 +11 1017.2 960.5
05 16.07 З 1 н/о н/о +12.6 +10.4 86 +13 +13 1017.2 960.8

 

Местоположение метеостанции Мондзе (Австрия): широта 47.85 долгота 13.37 высота над уровнем моря 491 м.

В архиве по умолчанию представлена погода в Мондзе за последнюю неделю. Архивные данные за месяц целиком и за предыдущие месяцы, начиная с января 2011 года, Вы можете получить, выбрав интересующий диапазон дат из раскрывающегося списка и нажав кнопку "Ввод!".


*Определитесь, кто Вы:
робот инопланетянин человек

Внимание! Время в таблицах - всемирное. Для получения местного времени необходимо прибавить поправку, которая равна 1 ч.

Смотрите также архив погоды в соседних городах и на ближайших метеорологических станциях:

Погода в Санкт-Вольфганге (Австрия) (15 км)
Погода в Франкенмаркте (Австрия) (16 км)
Погода в Маттзе (Австрия) (25 км)
Погода в Зальцбурге университет (Австрия) (25 км)
Погода в Фойеркогеле (Австрия) (26 км)
Погода в Зальцбурге (Австрия) (28 км)
Погода в Бад-Гойзерне (Австрия) (31 км)
Погода в Гмундене (Австрия) (33 км)
Погода в Вольфсегг-ам-Хаусрукке (Австрия) (36 км)
Погода в Бад-Аусзе (Австрия) (40 км)

Пояснения к столбцам:

Ветер - указаны скорость ветра в м/с - средняя за 10 мин, порывы в срок и между сроками (в фигурных скобках) и направление, откуда дует ветер: С - северный, СВ - северо-восточный, В - восточный, ЮВ - юго-восточный, Ю - южный, ЮЗ - юго-западный, З - западный, СЗ - северо-западный.
Видимость - горизонтальная дальность видимости в метрах или километрах. При видимости от 1 до 10 км при отсутствии осадков обычно наблюдается дымка, при ухудшении видимости до 1 км и менее - туман. В сухую погоду видимость может ухудшаться дымом, пылью или мглою.
Явления - указаны атмосферные явления, наблюдавшиеся в срок или в последний час перед сроком; фигурными скобками обозначены явления, наблюдавшиеся между сроками (за 1-3 часа до срока); квадратными скобками обозначены град или гололедные отложения с указанием их диаметра в мм.
Облачность - указаны через наклонную черту общая и нижняя облачность в баллах и высота нижней границы облаков в метрах; квадратными скобками обозначены формы облаков: Ci - перистые, Cs - перисто-слоистые, Cc - перисто-кучевые, Ac - высококучевые, As - высокослоистые, Sc - слоисто-кучевые, Ns - слоисто-дождевые, Cu - кучевые, Cb - кучево-дождевые. Подробнее классификацию облаков см. в Атласе облаков (PDF).
T - Температура воздуха - температура, измеренная на высоте 2 м над землей.
Td - Температура точки росы - температура, при понижении до которой содержащийся в воздухе водяной пар достигнет насыщения.
f - Относительная влажность воздуха - влажноcть воздуха, измеренная на высоте 2 м над землей.
Te - Эффективная температура - температура, которую ощущает одетый по сезону человек в тени. Характеристика душности погоды. При расчете учитывается влияние влажности воздуха и скорости ветра на теплоощущения человека.
Tes - Эффективная температура на солнце - температура, которую ощущает человек, с поправкой на солнечный нагрев. Характеристика знойности погоды. Зависит от высоты солнца над горизонтом, облачности и скорости ветра. Ночью, в пасмурную погоду, а также при ветре 12 м/с и более поправка равна нулю.
P - Атмосферное давление - приведенное к уровню моря атмосферное давление.
Po - Атмосферное давление - измеренное на уровне метеостанции атмосферное давление.
Tmin - Минимальная температура - минимум температуры воздуха на высоте 2 м над землей.
Tmax - Максимальная температура - максимум температуры воздуха на высоте 2 м над землей.
R - Количество осадков - Количество выпавших осадков за период времени, мм. При наведении курсора мыши на число - период времени, за который выпало указанное количество осадков.
R24 - Количество осадков - Количество выпавших осадков за 24 часа, мм.
S - Снежный покров - Высота снежного покрова, см. При наведении курсора мыши на число - состояние снежного покрова и степень покрытия местности в баллах.